• Em Portugal
  • Lista de países
  • Para 7 dias
  • Temperatura da água
  • Mapas de satélite
  • Mapa do tempo
  • Widgets de tempo
  • user-avatar
    Iniciar Sessão

    Previsão horária em Nachiczewan

    Hoje, 25 Maio, Sexta-feira

    Tempo Temperatura Precipitação Vento Pressão Humidade
    00:00 +20°C° 0 mm 2 m/s 685 mmHg 49%
    01:00 +20°C° 0 mm 1 m/s 685 mmHg 50%
    02:00 +20°C° 0 mm 1 m/s 685 mmHg 52%
    03:00 +19°C° 0 mm 1 m/s 684 mmHg 53%
    04:00 +20°C° 0 mm 1 m/s 685 mmHg 51%
    05:00 +20°C° 0 mm 1 m/s 685 mmHg 50%
    06:00 +21°C° 0 mm 1 m/s 685 mmHg 48%
    07:00 +22°C° 0 mm 1 m/s 685 mmHg 44%
    08:00 +24°C° 0 mm 1 m/s 685 mmHg 41%
    09:00 +25°C° 0 mm 1 m/s 685 mmHg 37%
    10:00 +26°C° 0,1 mm 1 m/s 685 mmHg 35%
    11:00 +27°C° 0,1 mm 2 m/s 685 mmHg 33%
    12:00 +28°C° 0,1 mm 2 m/s 685 mmHg 31%
    13:00 +29°C° 0,1 mm 2 m/s 685 mmHg 29%
    14:00 +30°C° 0,1 mm 2 m/s 684 mmHg 28%
    15:00 +30°C° 0,1 mm 2 m/s 684 mmHg 26%
    16:00 +30°C° 0,4 mm 2 m/s 684 mmHg 28%
    17:00 +29°C° 0,4 mm 2 m/s 684 mmHg 29%
    18:00 +29°C° 0,4 mm 1 m/s 684 mmHg 31%
    19:00 +27°C° 0,4 mm 2 m/s 684 mmHg 36%
    20:00 +26°C° 0,4 mm 2 m/s 684 mmHg 41%
    21:00 +24°C° 0,4 mm 2 m/s 684 mmHg 46%
    22:00 +24°C° 0,2 mm 1 m/s 685 mmHg 48%
    23:00 +23°C° 0,2 mm 1 m/s 685 mmHg 49%

    Amanhã, 26 Maio, Sábado

    Tempo Temperatura Precipitação Vento Pressão Humidade
    00:00 +23°C° 0,2 mm 1 m/s 685 mmHg 51%
    01:00 +22°C° 0 mm 1 m/s 685 mmHg 52%
    02:00 +22°C° 0 mm 1 m/s 685 mmHg 53%
    03:00 +21°C° 0 mm 1 m/s 685 mmHg 55%
    04:00 +22°C° 0 mm 1 m/s 685 mmHg 53%
    05:00 +22°C° 0 mm 1 m/s 685 mmHg 51%
    06:00 +23°C° 0 mm 1 m/s 686 mmHg 49%
    07:00 +24°C° 0 mm 1 m/s 686 mmHg 45%
    08:00 +25°C° 0 mm 1 m/s 686 mmHg 41%
    09:00 +26°C° 0 mm 1 m/s 686 mmHg 37%
    10:00 +27°C° 0 mm 1 m/s 686 mmHg 34%
    11:00 +28°C° 0 mm 2 m/s 686 mmHg 31%
    12:00 +30°C° 0 mm 2 m/s 686 mmHg 28%
    13:00 +30°C° 0 mm 2 m/s 686 mmHg 27%
    14:00 +30°C° 0 mm 2 m/s 686 mmHg 26%
    15:00 +31°C° 0 mm 3 m/s 686 mmHg 25%
    16:00 +30°C° 0 mm 3 m/s 686 mmHg 27%
    17:00 +30°C° 0 mm 2 m/s 686 mmHg 28%
    18:00 +30°C° 0 mm 2 m/s 686 mmHg 29%
    19:00 +28°C° 0,1 mm 2 m/s 686 mmHg 34%
    20:00 +26°C° 0,1 mm 2 m/s 687 mmHg 39%
    21:00 +25°C° 0,1 mm 1 m/s 687 mmHg 43%
    22:00 +24°C° 0,1 mm 1 m/s 687 mmHg 44%
    23:00 +24°C° 0,1 mm 1 m/s 687 mmHg 44%

    Depois de amanhã, 27 Maio, Domingo

    Tempo Temperatura Precipitação Vento Pressão Humidade
    00:00 +23°C° 0,1 mm 1 m/s 688 mmHg 45%
    01:00 +23°C° 0 mm 1 m/s 688 mmHg 46%
    02:00 +22°C° 0 mm 1 m/s 688 mmHg 47%
    03:00 +22°C° 0 mm 1 m/s 688 mmHg 48%
    04:00 +22°C° 0 mm 1 m/s 688 mmHg 47%
    05:00 +23°C° 0 mm 1 m/s 688 mmHg 45%
    06:00 +24°C° 0 mm 1 m/s 689 mmHg 44%
    07:00 +25°C° 0 mm 1 m/s 689 mmHg 40%
    08:00 +26°C° 0 mm 1 m/s 689 mmHg 35%
    09:00 +28°C° 0 mm 1 m/s 690 mmHg 31%
    10:00 +29°C° 0 mm 1 m/s 690 mmHg 29%
    11:00 +30°C° 0 mm 2 m/s 690 mmHg 27%
    12:00 +31°C° 0 mm 2 m/s 690 mmHg 25%
    13:00 +31°C° 0 mm 2 m/s 690 mmHg 24%
    14:00 +33°C° 0 mm 3 m/s 690 mmHg 24%
    15:00 +33°C° 0 mm 3 m/s 690 mmHg 23%
    16:00 +31°C° 0 mm 3 m/s 690 mmHg 26%
    17:00 +31°C° 0 mm 3 m/s 690 mmHg 29%
    18:00 +30°C° 0 mm 4 m/s 690 mmHg 31%
    19:00 +28°C° 0 mm 3 m/s 691 mmHg 37%
    20:00 +27°C° 0 mm 3 m/s 691 mmHg 42%
    21:00 +25°C° 0 mm 3 m/s 691 mmHg 48%
    22:00 +24°C° 0 mm 2 m/s 691 mmHg 50%
    23:00 +23°C° 0 mm 2 m/s 691 mmHg 53%

    28 Maio, Segunda-feira

    Tempo Temperatura Precipitação Vento Pressão Humidade
    00:00 +23°C° 0 mm 2 m/s 691 mmHg 56%
    01:00 +21°C° 0,1 mm 2 m/s 691 mmHg 57%
    02:00 +21°C° 0,1 mm 2 m/s 691 mmHg 58%
    03:00 +21°C° 0,1 mm 1 m/s 691 mmHg 59%
    04:00 +22°C° 0 mm 1 m/s 691 mmHg 57%
    05:00 +22°C° 0 mm 1 m/s 691 mmHg 55%
    06:00 +23°C° 0 mm 1 m/s 691 mmHg 53%
    07:00 +24°C° 0 mm 1 m/s 691 mmHg 48%
    08:00 +25°C° 0 mm 1 m/s 691 mmHg 42%
    09:00 +27°C° 0 mm 1 m/s 691 mmHg 37%
    10:00 +28°C° 0 mm 1 m/s 690 mmHg 34%
    11:00 +29°C° 0 mm 1 m/s 690 mmHg 30%
    12:00 +31°C° 0 mm 2 m/s 690 mmHg 27%
    13:00 +31°C° 0 mm 2 m/s 689 mmHg 26%
    14:00 +32°C° 0 mm 2 m/s 689 mmHg 25%
    15:00 +34°C° 0 mm 2 m/s 689 mmHg 23%
    16:00 +32°C° 0,2 mm 2 m/s 689 mmHg 25%
    17:00 +31°C° 0,2 mm 2 m/s 688 mmHg 27%
    18:00 +31°C° 0,2 mm 2 m/s 688 mmHg 29%
    19:00 +29°C° 0,1 mm 2 m/s 688 mmHg 34%
    20:00 +28°C° 0,1 mm 2 m/s 689 mmHg 39%
    21:00 +27°C° 0,1 mm 2 m/s 689 mmHg 45%
    22:00 +26°C° 0 mm 1 m/s 689 mmHg 46%
    23:00 +25°C° 0 mm 1 m/s 689 mmHg 48%

    29 Maio, Terça-feira

    Tempo Temperatura Precipitação Vento Pressão Humidade
    00:00 +25°C° 0 mm 1 m/s 689 mmHg 49%
    01:00 +24°C° 0 mm 1 m/s 688 mmHg 50%
    02:00 +24°C° 0 mm 1 m/s 688 mmHg 50%
    03:00 +23°C° 0 mm 2 m/s 688 mmHg 51%
    04:00 +24°C° 0 mm 1 m/s 688 mmHg 49%
    05:00 +24°C° 0 mm 1 m/s 688 mmHg 48%
    06:00 +25°C° 0 mm 1 m/s 688 mmHg 47%
    07:00 +26°C° 0 mm 1 m/s 688 mmHg 42%
    08:00 +27°C° 0 mm 1 m/s 688 mmHg 38%
    09:00 +28°C° 0 mm 1 m/s 688 mmHg 34%
    10:00 +30°C° 0 mm 2 m/s 688 mmHg 32%
    11:00 +31°C° 0 mm 2 m/s 687 mmHg 29%
    12:00 +33°C° 0 mm 3 m/s 687 mmHg 27%
    13:00 +33°C° 0 mm 3 m/s 687 mmHg 27%
    14:00 +33°C° 0 mm 4 m/s 686 mmHg 26%
    15:00 +33°C° 0 mm 4 m/s 686 mmHg 26%
    16:00 +32°C° 0,9 mm 4 m/s 686 mmHg 34%
    17:00 +29°C° 0,9 mm 5 m/s 686 mmHg 41%
    18:00 +27°C° 0,9 mm 5 m/s 686 mmHg 49%
    19:00 +26°C° 0,4 mm 4 m/s 686 mmHg 53%
    20:00 +25°C° 0,4 mm 3 m/s 686 mmHg 57%
    21:00 +22°C° 0,4 mm 3 m/s 687 mmHg 61%
    22:00 +23°C° 0,1 mm 2 m/s 686 mmHg 62%
    23:00 +21°C° 0,1 mm 2 m/s 686 mmHg 63%

    30 Maio, Quarta-feira

    Tempo Temperatura Precipitação Vento Pressão Humidade
    00:00 +21°C° 0,1 mm 2 m/s 686 mmHg 65%
    01:00 +20°C° 0 mm 2 m/s 686 mmHg 64%
    02:00 +20°C° 0 mm 2 m/s 686 mmHg 64%
    03:00 +21°C° 0 mm 1 m/s 686 mmHg 64%
    04:00 +20°C° 0 mm 2 m/s 687 mmHg 62%
    05:00 +20°C° 0 mm 2 m/s 687 mmHg 61%
    06:00 +20°C° 0 mm 2 m/s 687 mmHg 59%
    07:00 +23°C° 0 mm 2 m/s 687 mmHg 54%
    08:00 +24°C° 0 mm 2 m/s 688 mmHg 49%
    09:00 +25°C° 0 mm 2 m/s 688 mmHg 44%
    10:00 +27°C° 0 mm 3 m/s 688 mmHg 41%
    11:00 +28°C° 0 mm 3 m/s 688 mmHg 37%
    12:00 +29°C° 0 mm 4 m/s 688 mmHg 34%
    13:00 +30°C° 0,2 mm 4 m/s 688 mmHg 34%
    14:00 +30°C° 0,2 mm 4 m/s 688 mmHg 33%
    15:00 +30°C° 0,2 mm 5 m/s 688 mmHg 32%
    16:00 +29°C° 0,8 mm 4 m/s 687 mmHg 36%
    17:00 +28°C° 0,8 mm 4 m/s 687 mmHg 40%
    18:00 +27°C° 0,8 mm 4 m/s 687 mmHg 44%
    19:00 +26°C° 0,4 mm 4 m/s 687 mmHg 48%
    20:00 +25°C° 0,4 mm 3 m/s 687 mmHg 53%
    21:00 +23°C° 0,4 mm 2 m/s 687 mmHg 58%
    22:00 +23°C° 0,1 mm 2 m/s 687 mmHg 58%
    23:00 +23°C° 0,1 mm 2 m/s 687 mmHg 59%
    Mostrar mais